Location: *
(35.8942°N, 23.3025°E)
Time: 21:28:46
(UTC+00:00)

Cosmos 44 Rocket - Pass Details

Date: 21 September 2021
Orbit: 641 x 748 km, 65.1° (Epoch: 22 October)

Event Time Altitude Azimuth Distance (km) Brightness Sun altitude
Rises 03:24:21 0° 196° (SSW) 3,148 6.4 -10.8°
Reaches altitude 10° 03:26:44 10° 192° (SSW) 2,240 5.7 -10.4°
Maximum altitude 03:31:45 56° 115° (ESE) 884 4.2 -9.3°
Drops below altitude 10° 03:36:50 10° 38° (NE) 2,269 6.7 -8.3°
Sets 03:39:16 0° 34° (NE) 3,193 7.4 -7.8°
